#timestamp,LO_Frequency,Hit,StdDev 
1537027215.7,286047000.8,N
1537027235.5,286046999.9,N
1537027255.3,286047002.5,N
1537027275.2,286047001.9,N
1537027295.9,286047002.2,N
1537027315.7,286047002.4,N
1537027335.6,286047001.3,N
1537027355.4,286047004.0,N
1537027375.3,286046999.8,N
1537027395.1,286047001.6,N
1537027396.0,286047001.6,N
1537027415.8,286047002.2,N
1537027435.7,286047003.7,N
1537027455.5,286047001.5,N
1537027475.3,286047004.3,N
1537027495.2,286047003.3,N
1537027515.0,286047004.7,N
1537027515.9,286047004.7,N
1537027535.8,286047005.7,Y
1537027555.6,286047001.4,P
1537027575.4,286047003.0,P
1537027595.3,286047006.5,P
1537027615.1,286047001.4,N
1537027635.8,286047003.6,N
1537027655.7,286047004.7,N
1537027675.5,286047004.5,N
1537027695.4,286047006.0,Y
1537027715.2,286047002.3,P
1537027735.0,286047002.1,P
1537027735.9,286047002.1,P
1537027755.8,286047000.6,N
1537027775.6,286046999.7,N
1537027795.4,286047001.0,N
1537027815.3,286046998.2,N
1537027835.1,286046998.5,N
1537027855.9,286047000.6,N
1537027875.7,286047002.5,N
1537027895.5,286047002.7,N
1537027915.4,286047004.3,N
1537027935.2,286047002.3,N
1537027955.0,286047002.3,N
1537027955.9,286047002.3,N
1537027975.8,286047002.4,N
1537027995.6,286047002.5,N
1537028015.5,286047001.6,N
1537028035.3,286047002.9,N
1537028055.1,286047001.3,N
1537028075.9,286047003.6,N
1537028095.7,286047003.4,N
1537028115.5,286047004.1,N
1537028135.4,286047001.7,N
1537028155.2,286047003.8,N
1537028175.1,286047004.2,N
1537028176.0,286047004.2,N
1537028195.8,286047006.9,Y
1537028215.6,286047001.6,P
1537028235.5,286047004.4,P
1537028255.3,286047002.5,N
1537028275.1,286046999.9,N
1537028295.9,286047001.9,N
1537028315.7,286047001.4,N
1537028335.6,286047001.7,N
1537028355.4,286047003.4,N
1537028375.2,286047002.0,N
1537028395.1,286047001.6,N
1537028396.0,286047001.6,N
1537028415.8,286047003.7,Y
1537028435.6,286047004.0,P
1537028455.5,286047001.5,N
1537028475.3,286047002.6,N
1537028495.2,286047001.9,N
1537028515.9,286047001.9,N
1537028535.7,286047002.5,Y
1537028555.6,286046998.1,P
1537028575.4,286046998.6,N
1537028595.2,286046999.4,N
1537028615.1,286046998.8,N
1537028616.0,286046998.8,N
1537028635.8,286046998.5,N
1537028655.7,286047000.6,N
1537028675.5,286046998.1,N
1537028695.3,286047001.0,N
1537028715.2,286047001.1,N
1537028735.9,286047001.0,N
1537028755.7,286047002.5,N
1537028775.6,286047001.7,N
1537028795.4,286047004.2,N
1537028815.2,286047001.4,N
1537028835.1,286047004.4,N
1537028836.0,286047004.4,N
1537028855.8,286047007.1,Y
1537028875.7,286047004.4,P
1537028895.5,286047001.5,N
1537028915.3,286047001.5,N
1537028935.2,286047003.1,N
1537028955.0,286047005.8,Y
1537028955.9,286047005.8,P
1537028975.8,286047003.3,N
1537028995.6,286047001.5,N
1537029015.4,286047003.0,N
1537029035.3,286047002.9,N
1537029055.1,286047005.4,Y
1537029075.9,286047002.1,P
1537029095.7,286047000.1,N
1537029115.5,286046999.7,N
1537029135.4,286047001.0,N
1537029155.2,286047000.6,N
1537029175.0,286047002.4,N
1537029175.9,286047002.4,N
1537029195.8,286047000.1,N
1537029215.6,286047000.6,N
1537029235.4,286047000.9,N
1537029255.3,286046998.5,N
1537029275.1,286047000.0,N
1537029295.9,286046999.7,N
1537029315.7,286047000.8,N
1537029335.5,286047001.1,N
1537029355.4,286046998.8,N
1537029375.2,286046998.3,N
1537029395.0,286046999.2,N
1537029395.9,286046999.2,N
1537029415.8,286046998.7,N
1537029435.6,286046997.7,N
1537029455.5,286046997.7,N
1537029475.3,286046997.0,N
1537029495.1,286046996.5,N
1537029515.9,286046997.0,N
1537029535.7,286046999.0,N
1537029555.5,286046999.6,N
1537029575.4,286046997.8,N
1537029595.2,286046999.4,N
1537029615.0,286046996.8,N
1537029615.9,286046996.8,N
1537029635.8,286046999.3,N
1537029655.6,286046999.3,N
1537029675.5,286046998.9,N
1537029695.3,286046998.2,N
1537029715.1,286047004.3,N
1537029735.9,286047002.5,N
1537029755.7,286047004.0,N
1537029775.5,286047003.5,N
1537029795.4,286047005.1,N
1537029815.2,286047005.3,N
1537029835.1,286047003.4,N
1537029836.0,286047003.4,N
1537029855.8,286047002.6,N
1537029875.6,286047000.1,N
1537029895.5,286047001.5,N
1537029915.3,286047001.7,N
1537029935.1,286047001.6,N
1537029955.9,286047004.0,N
1537029975.7,286047004.9,N
1537029995.6,286047003.9,N
1537030015.4,286047001.3,N
1537030035.2,286047006.0,N
1537030055.1,286047005.3,N
1537030056.0,286047005.3,N
1537030075.8,286047004.9,N
1537030095.6,286047005.9,N
1537030115.5,286047005.8,N
1537030135.3,286047005.8,N
1537030155.2,286047008.7,Y
1537030175.9,286047007.5,P
1537030195.7,286047006.0,N
1537030215.6,286047006.0,N
1537030235.4,286047004.7,N
1537030255.2,286047005.3,Y
1537030275.1,286047000.8,P
1537030276.0,286047000.8,N
1537030295.8,286047000.1,N
1537030315.7,286046999.0,N
1537030335.5,286046998.7,N
1537030355.3,286047000.7,N
1537030375.2,286046997.4,N
1537030395.9,286046995.0,N
1537030415.7,286046996.6,N
1537030435.6,286046998.9,N
1537030455.4,286046998.8,N
1537030475.2,286046998.5,N
1537030495.1,286046998.9,N
1537030496.0,286046998.9,N
1537030515.8,286046996.5,N
1537030535.7,286046998.5,N
1537030555.5,286046999.7,N
1537030575.3,286046999.4,N
1537030595.2,286046999.6,N
1537030615.0,286046996.6,N
1537030615.9,286046996.6,N
1537030635.7,286047001.0,N
1537030655.6,286047001.1,N
1537030675.4,286046999.9,N
1537030695.3,286047001.2,N
1537030715.1,286046999.3,N
1537030716.0,286046999.3,N
1537030735.8,286046998.2,N
1537030755.7,286047002.2,N
1537030775.5,286047001.5,N
1537030795.3,286047005.4,Y
